Preview of NWS' New Version of Forecast
This preview is not operational and should not be used for support decisions.

Regional Weather Roundup (RWR)

Issued by National Weather Service (NWS)

                            
000
ASPQ40 PGUM 230710
RWRPQ 
WEATHER ROUNDUP FOR THE MARIANAS AND MICRONESIA
NATIONAL WEATHER SERVICE TIYAN GU
500 PM CHST FRI AUG 23 2019

GUZ001>004-230800-
MARIANA ISLANDS-
  
CITY           SKY/WX    TMP DP  RH WIND       PRES   REMARKS
GUAM AIRPORT   PTSUNNY   84  79  84 E9        29.79R HX  96           
ANDERSEN AFB   CLOUDY    84  77  79 E13       29.80R HX  94           
ROTA AIRPORT   PTSUNNY   86  73  66 NE14      29.76S HX  93           
TINIAN AP      MOSUNNY   88  77  70 E17       29.76S HX 100           
SAIPAN AP      MOSUNNY   88  77  70 NE13      29.78S HX 100           

$$

PMZ161-230800-
REPUBLIC OF PALAU-
  
CITY           SKY/WX    TMP DP  RH WIND       PRES   REMARKS
KOROR AP       NOT AVBL                                               
KOROR WSO      NOT AVBL                                               

$$

PMZ171>174-230800-
FEDERATED STATES OF MICRONESIA-
  
CITY           SKY/WX    TMP DP  RH WIND       PRES   REMARKS
YAP AIRPORT    PTSUNNY   88  77  70 NW14      29.80F HX 100           
CHUUK AP       CLOUDY    82  79  89 VRB3      29.76F HX  93           
POHNPEI AP     NOT AVBL                                               
POHNPEI WSO    CLOUDY    82  77  83 SE2       29.83S HX  91           
KOSRAE AP      NOT AVBL                                               

$$

PMZ181-230800-
REPUBLIC OF THE MARSHALL ISLANDS-
  
CITY           SKY/WX    TMP DP  RH WIND       PRES   REMARKS
KWAJALEIN AP   MOCLDY    84  75  74 NE8       29.84R HX  92           
MAJURO AP      MOCLDY    84  77  79 E12       29.83S HX  94           
MAJURO WSO     CLOUDY    82  75  78 E5        29.82R                  

$$